Minot Air Force Base, ND

2:52 AM CDT on August 26, 2016 (GMT -0500)
Minot Air Force Base

Weather History for KMIB - March, 2013

Change the Weather History Date:

Sunday, March 24, 2013

  Actual Average Record
Temperature  
Mean Temperature 12 °F -  
Max Temperature 21 °F 38 °F 69 °F (2007)
Min Temperature 3 °F 20 °F -2 °F (2011)
Degree Days  
Heating Degree Days 53    
Moisture  
Dew Point 13 °F    
Average Humidity 85    
Maximum Humidity 93    
Minimum Humidity 72    
Precipitation  
Precipitation 0.00 in - - ()
Sea Level Pressure  
Sea Level Pressure 30.33 in    
Wind  
Wind Speed 11 mph (NNW)    
Max Wind Speed 16 mph    
Max Gust Speed -    
Visibility 8 miles    
Events Snow    
Averages and records for this station are not official NWS values.
T = Trace of Precipitation, MM = Missing Value Source: NWS Daily Summary

Daily Weather History Graph

Daily Weather History Graph

Search for Another Location

Airport or City:

Trip Planner

Search our weather history database for the weather conditions in past years. The results will help you decide how hot, cold, wet, or windy it might be!

Date:

Astronomy

Mar. 24, 2013 Rise Set
Actual Time 7:39 AM CDT 8:04 PM CDT
Civil Twilight 7:08 AM CDT 8:36 PM CDT
Nautical Twilight 6:31 AM CDT 9:13 PM CDT
Astronomical Twilight 5:52 AM CDT 9:51 PM CDT
Moon 5:25 PM CDT (3/24) 6:02 AM CDT (3/24)
Length of Visible Light 13h 27m
Length of Day
12h 25m
Waxing Gibbous, 92% of the Moon is Illuminated
Mar 24
Waxing Gibbous
Mar 27
Full
Apr 2
Last Quarter
Apr 10
New
Apr 18
First Quarter

Hourly Weather History & Observations

Time (CDT) Temp. Windchill Dew Point Humidity Pressure Visibility Wind Dir Wind Speed Gust Speed Precip Events Conditions
12:01 AM 19.4 °F 7.2 °F 15.8 °F 86% 30.30 in 2.5 mi NW 11.5 mph - N/A Snow Light Snow
12:05 AM 19.4 °F 7.2 °F 15.8 °F 86% 30.30 in 3.0 mi NNW 11.5 mph - N/A Snow Light Snow
12:10 AM 19.4 °F 7.2 °F 15.8 °F 86% 30.30 in 3.0 mi NNW 11.5 mph - N/A Snow Light Snow
12:30 AM 19.4 °F 7.9 °F 15.8 °F 86% 30.29 in 4.0 mi NNW 10.4 mph - N/A   Overcast
12:43 AM 19.4 °F 7.9 °F 15.8 °F 86% 30.29 in 5.0 mi NNW 10.4 mph - N/A Snow Light Snow
12:50 AM 19.4 °F 7.9 °F 15.8 °F 86% 30.29 in 4.0 mi NNW 10.4 mph - N/A Snow Light Snow
12:53 AM 19.4 °F 7.9 °F 15.8 °F 86% 30.29 in 5.0 mi NNW 10.4 mph - N/A Snow Light Snow
12:55 AM 18.7 °F 7.0 °F 16.5 °F 91% 30.29 in 5.0 mi NNW 10.4 mph - 0.00 in Snow Light Snow
1:13 AM 17.6 °F 5.7 °F 15.8 °F 93% 30.29 in 7.0 mi NNW 10.4 mph - N/A Snow Light Snow
1:30 AM 17.6 °F 6.4 °F 15.8 °F 93% 30.29 in 9.0 mi NNW 9.2 mph - N/A   Overcast
1:31 AM 17.6 °F 7.3 °F 15.8 °F 93% 30.29 in 9.0 mi NNW 8.1 mph - N/A   Overcast
1:46 AM 15.8 °F 4.2 °F 14.0 °F 93% 30.29 in 9.0 mi NNW 9.2 mph - N/A   Overcast
1:53 AM 15.8 °F 4.2 °F 14.0 °F 93% 30.29 in 6.0 mi NNW 9.2 mph - N/A   Overcast
1:54 AM 15.8 °F 4.2 °F 14.0 °F 93% 30.29 in 6.0 mi NNW 9.2 mph - N/A   Overcast
1:58 AM 17.6 °F 6.4 °F 14.0 °F 86% 30.29 in 5.0 mi NNW 9.2 mph - N/A Snow Light Snow
2:06 AM 17.6 °F 6.4 °F 15.8 °F 93% 30.29 in 6.0 mi North 9.2 mph - N/A Snow Light Snow
2:08 AM 17.6 °F 6.4 °F 15.8 °F 93% 30.29 in 6.0 mi North 9.2 mph - N/A Snow Light Snow
2:55 AM 18.1 °F 7.9 °F 15.6 °F 90% 30.29 in 10.0 mi North 8.1 mph - 0.00 in Snow Light Snow
3:18 AM 17.6 °F 7.3 °F 15.8 °F 93% 30.29 in 10.0 mi North 8.1 mph - N/A Snow Light Snow
3:21 AM 17.6 °F 7.3 °F 15.8 °F 93% 30.28 in 10.0 mi North 8.1 mph - N/A Snow Light Snow
3:22 AM 17.6 °F 7.3 °F 15.8 °F 93% 30.28 in 10.0 mi North 8.1 mph - N/A Snow Light Snow
3:55 AM 18.0 °F 6.9 °F 15.4 °F 90% 30.28 in 10.0 mi NNW 9.2 mph - 0.00 in Snow Light Snow
4:45 AM 17.6 °F 5.7 °F 15.8 °F 93% 30.29 in 10.0 mi North 10.4 mph - N/A   Overcast
4:55 AM 17.6 °F 5.7 °F 14.9 °F 89% 30.29 in 10.0 mi North 10.4 mph - 0.00 in   Overcast
5:55 AM 18.0 °F 5.4 °F 15.4 °F 90% 30.29 in 10.0 mi North 11.5 mph - 0.00 in   Overcast
6:11 AM 17.6 °F 5.7 °F 15.8 °F 93% 30.30 in 10.0 mi North 10.4 mph - N/A   Overcast
6:32 AM 17.6 °F 5.7 °F 15.8 °F 93% 30.30 in 9.0 mi North 10.4 mph - N/A   Overcast
6:55 AM 17.4 °F 5.4 °F 14.7 °F 89% 30.31 in 10.0 mi North 10.4 mph - N/A   Overcast
7:15 AM 17.6 °F 5.7 °F 14.0 °F 86% 30.32 in 10.0 mi North 10.4 mph - N/A Snow Light Snow
7:19 AM 17.6 °F 5.7 °F 14.0 °F 86% 30.32 in 10.0 mi North 10.4 mph - N/A Snow Light Snow
7:24 AM 17.6 °F 5.7 °F 14.0 °F 86% 30.32 in 10.0 mi North 10.4 mph - N/A Snow Light Snow
7:55 AM 17.4 °F 5.4 °F 14.7 °F 89% 30.32 in 10.0 mi North 10.4 mph - 0.00 in Snow Light Snow
8:34 AM 17.6 °F 5.0 °F 14.0 °F 86% 30.32 in 8.0 mi North 11.5 mph - N/A Snow Light Snow
8:35 AM 17.6 °F 5.0 °F 14.0 °F 86% 30.32 in 8.0 mi North 11.5 mph - N/A Snow Light Snow
8:37 AM 17.6 °F 5.0 °F 14.0 °F 86% 30.32 in 8.0 mi North 11.5 mph - N/A Snow Light Snow
8:39 AM 17.6 °F 5.7 °F 14.0 °F 86% 30.32 in 8.0 mi North 10.4 mph - N/A Snow Light Snow
8:46 AM 17.6 °F 5.0 °F 14.0 °F 86% 30.32 in 9.0 mi North 11.5 mph - N/A Snow Light Snow
8:55 AM 17.6 °F 6.4 °F 14.4 °F 87% 30.32 in 10.0 mi North 9.2 mph - 0.00 in Snow Light Snow
8:58 AM 17.6 °F 5.7 °F 14.0 °F 86% 30.32 in 10.0 mi North 10.4 mph - N/A Snow Light Snow
9:20 AM 17.6 °F 4.3 °F 14.0 °F 86% 30.33 in 10.0 mi North 12.7 mph - N/A Snow Light Snow
9:21 AM 17.6 °F 3.7 °F 14.0 °F 86% 30.33 in 10.0 mi North 13.8 mph - N/A Snow Light Snow
9:47 AM 17.6 °F 3.7 °F 14.0 °F 86% 30.32 in 10.0 mi North 13.8 mph - N/A Snow Light Snow
9:50 AM 17.6 °F 4.3 °F 14.0 °F 86% 30.32 in 10.0 mi North 12.7 mph - N/A Snow Light Snow
9:55 AM 17.6 °F 4.3 °F 14.0 °F 86% 30.32 in 9.0 mi NNW 12.7 mph - 0.00 in Snow Light Snow
9:56 AM 17.6 °F 3.7 °F 14.0 °F 86% 30.32 in 9.0 mi North 13.8 mph - N/A Snow Light Snow
10:28 AM 17.6 °F 3.7 °F 14.0 °F 86% 30.33 in 9.0 mi North 13.8 mph - N/A Snow Light Snow
10:33 AM 17.6 °F 2.7 °F 14.0 °F 86% 30.33 in 10.0 mi North 16.1 mph - N/A Snow Light Snow
10:39 AM 17.6 °F 2.7 °F 14.0 °F 86% 30.33 in 7.0 mi North 16.1 mph - N/A Snow Light Snow
10:40 AM 17.6 °F 2.7 °F 14.0 °F 86% 30.33 in 7.0 mi North 16.1 mph - N/A Snow Light Snow
10:42 AM 17.6 °F 2.7 °F 14.0 °F 86% 30.33 in 7.0 mi North 16.1 mph - N/A Snow Light Snow
10:44 AM 17.6 °F 2.7 °F 14.0 °F 86% 30.33 in 7.0 mi North 16.1 mph - N/A Snow Light Snow
10:47 AM 17.6 °F 2.7 °F 14.0 °F 86% 30.33 in 8.0 mi North 16.1 mph - N/A Snow Light Snow
10:48 AM 17.6 °F 3.2 °F 14.0 °F 86% 30.33 in 9.0 mi North 15.0 mph - N/A Snow Light Snow
10:55 AM 17.2 °F 3.9 °F 12.6 °F 82% 30.34 in 7.0 mi North 12.7 mph - 0.00 in Snow Light Snow
10:57 AM 17.6 °F 3.7 °F 12.2 °F 79% 30.34 in 7.0 mi North 13.8 mph - N/A Snow Light Snow
10:58 AM 17.6 °F 3.2 °F 12.2 °F 79% 30.34 in 7.0 mi North 15.0 mph - N/A Snow Light Snow
11:05 AM 17.6 °F 3.2 °F 12.2 °F 79% 30.34 in 9.0 mi North 15.0 mph - N/A Snow Light Snow
11:06 AM 17.6 °F 3.2 °F 12.2 °F 79% 30.34 in 9.0 mi North 15.0 mph - N/A Snow Light Snow
11:15 AM 17.6 °F 3.7 °F 12.2 °F 79% 30.34 in 10.0 mi North 13.8 mph - N/A Snow Light Snow
11:55 AM 16.7 °F 2.0 °F 10.4 °F 76% 30.35 in 10.0 mi NNW 15.0 mph - 0.00 in   Overcast
12:48 PM 17.6 °F 4.3 °F 10.4 °F 73% 30.36 in 10.0 mi North 12.7 mph - N/A   Light Freezing Rain
12:55 PM 17.4 °F 4.1 °F 9.9 °F 72% 30.36 in 10.0 mi North 12.7 mph - 0.00 in   Overcast
1:10 PM 17.6 °F 3.7 °F 10.4 °F 73% 30.36 in 10.0 mi North 13.8 mph - N/A Snow Light Snow
1:19 PM 17.6 °F 3.7 °F 10.4 °F 73% 30.36 in 10.0 mi North 13.8 mph - N/A Snow Light Snow
1:55 PM 18.9 °F 5.3 °F 12.2 °F 75% 30.36 in 8.0 mi North 13.8 mph - 0.00 in Snow Light Snow
2:35 PM 19.4 °F 6.6 °F 14.0 °F 80% 30.35 in 10.0 mi North 12.7 mph - N/A   Overcast
2:55 PM 20.3 °F 6.6 °F 14.2 °F 77% 30.35 in 10.0 mi NNW 15.0 mph - 0.00 in   Overcast
3:02 PM 21.2 °F 7.3 °F 14.0 °F 74% 30.35 in 10.0 mi NNW 16.1 mph - N/A   Overcast
3:05 PM 21.2 °F 7.8 °F 14.0 °F 74% 30.35 in 9.0 mi North 15.0 mph - N/A   Overcast
3:13 PM 21.2 °F 7.8 °F 15.8 °F 80% 30.35 in 10.0 mi North 15.0 mph - N/A   Overcast
3:55 PM 21.0 °F 8.1 °F 15.3 °F 78% 30.35 in 10.0 mi North 13.8 mph - 0.00 in   Overcast
4:53 PM 21.2 °F 7.8 °F 15.8 °F 80% 30.37 in 10.0 mi North 15.0 mph - N/A   Overcast
4:55 PM 21.0 °F 7.1 °F 15.6 °F 80% 30.37 in 10.0 mi North 16.1 mph - 0.00 in   Overcast
5:33 PM 21.2 °F 8.3 °F 14.0 °F 74% 30.38 in 10.0 mi North 13.8 mph - N/A   Overcast
5:43 PM 21.2 °F 8.9 °F 14.0 °F 74% 30.38 in 10.0 mi North 12.7 mph - N/A   Overcast
6:55 PM 18.0 °F 6.1 °F 10.9 °F 74% 30.39 in 10.0 mi NNW 10.4 mph - N/A   Clear
7:55 PM 12.7 °F 0.4 °F 7.0 °F 78% 30.40 in 10.0 mi NNW 9.2 mph - N/A   Clear
8:55 PM 6.6 °F -8.0 °F 1.2 °F 79% 30.42 in 10.0 mi NW 10.4 mph - N/A   Clear
9:55 PM 4.1 °F -11.1 °F -0.6 °F 81% 30.43 in 10.0 mi NW 10.4 mph - N/A   Clear
10:55 PM 3.4 °F -13.6 °F -0.4 °F 84% 30.43 in 10.0 mi WNW 12.7 mph - N/A   Clear
11:55 PM 3.2 °F -12.2 °F -0.0 °F 86% 30.44 in 10.0 mi WNW 10.4 mph - N/A   Clear